Regional Weather Roundup
Issued by NWS

Home | Current Version | Previous Version | Graphics & Text | Print | Product List | Glossary On
Versions: 1 2 3 4 5 6 7 8 9 10 11 12 13 14 15 16 17 18 19 20 21 22 23 24 25 26 27 28 29 30 31 32 33 34 35 36 37 38 39 40 41 42 43 44 45 46 47 48 49 50
000
ASUS43 KLMK 261610
RWRKY
KENTUCKY REGIONAL WEATHER ROUNDUP
NATIONAL WEATHER SERVICE LOUISVILLE KY
1200 PM EDT TUE MAY 26 2015

NOTE "FAIR" INDICATES FEW OR NO CLOUDS BELOW 12,000 FEET
WITH NO SIGNIFICANT WEATHER AND/OR OBSTRUCTIONS TO VISIBILITY.

KYZ001>023-026-027-061>063-070>075-261700-
WESTERN AND SOUTH CENTRAL KENTUCKY

CITY           SKY/WX    TMP DP  RH WIND       PRES   REMARKS
PADUCAH        CLOUDY    74  65  73 SW17G28   30.01R
HENDERSON      CLOUDY    75  66  73 SW18G26   30.00R
OWENSBORO      CLOUDY    76  69  79 SW16      30.02R
HOPKINSVILLE   NOT AVBL
BOWLING GREEN  CLOUDY    79  68  69 S22G28    30.06S
GLASGOW        CLOUDY    78  67  68 S9G25     30.08F
$$

KYZ024-025-028>034-038-045-046-053-261700-
NORTH CENTRAL KENTUCKY

CITY           SKY/WX    TMP DP  RH WIND       PRES   REMARKS
LOUISVILLE/SDF PTSUNNY   81  68  64 S17G24    30.04F
LOUISVILLE/LOU PTSUNNY   80  68  66 S13G21    30.06F
FORT KNOX      CLOUDY    80  69  69 S13G22    30.04F
$$

KYZ035>037-039>044-047>052-055>060-089>105-261700-
NORTHEAST KENTUCKY

CITY           SKY/WX    TMP DP  RH WIND       PRES   REMARKS
LEXINGTON      PTSUNNY   80  66  62 S18G28    30.11F
COVINGTON      MOSUNNY   81  66  60 S17G24    30.08F
FRANKFORT      PTSUNNY   80  66  62 S16       30.08F
$$

KYZ054-064>069-076>088-106>120-261700-
SOUTHEAST KENTUCKY

CITY           SKY/WX    TMP DP  RH WIND       PRES   REMARKS
JACKSON        MOSUNNY   78  64  61 S8        30.19F
LONDON         PTSUNNY   80  62  54 S15G21    30.17F
SOMERSET       PTSUNNY   79  63  57 S15       30.15S
MIDDLESBORO    PTSUNNY   78  67  68 S5        30.21F
MONTICELLO     MOSUNNY   80  68  67 S17G26    30.16F
$$




USA.gov is the U.S. government's official web portal to all federal, state and local government web resources and services.